RH
77 75 80 79 81 67 69 61 67 71 62 70 81 100 100 100 89 81 77 71 68 72 78 86 83 82 95 100 100 90 94 100 100 100 97 85 78 76 70 60 52 48 46 45 40 36 34
91 85 80 80 78 74 72 81 78 81 77 76 66 56 59 69 81 88 98 92 82 71 74 71 76 71 75 86 99 100 100 100 100 100 100 100 93 83 85 71 55 46 45 41 34 34 33
100 96 88 76 80 78 72 79 82 75 74 83 76 70 67 69 72 81 97 100 90 79 73 84 68 62 71 72 69 62 76 92 100 100 100 96 86 82 79 77 63 45 47 46 39 37 35
85 93 100 100 100 100 96 94 79 86 84 88 88 87 80 72 98 96 97 82 86 99 97 91 95 69 91 100 88 65 80 70 79 95 100 97 83 76 88 84 63 45 46 50 45 42 38
100 100 95 98 96 88 96 100 100 99 89 87 92 90 100 91 86 83 81 79 70 71 76 100 97 73 70 81 100 92 83 82 82 79 78 85 80 78 76 75 64 60 51 46 47 46 43
99 95 96 87 77 80 75 81 79 77 97 97 95 92 89 94 91 92 82 86 85 100 100 94 78 86 72 77 76 81 88 75 74 78 54 61 67 74 75 72 65 61 58 56 49 46 50
91 82 76 74 74 69 64 73 81 95 92 84 76 76 83 79 75 72 71 72 89 100 100 96 84 74 80 73 77 76 83 88 70 63 64 58 63 72 77 75 70 62 54 54 51 48 47
83 82 77 71 70 70 70 73 78 80 78 78 77 72 73 75 75 69 68 67 61 64 75 71 60 60 64 73 86 86 86 80 73 65 67 66 68 72 70 73 72 72 54 54 52 51 53
58 74 80 74 74 87 93 85 74 69 68 46 37 35 38 40 39 38 43 46 46 51 70 80 68 56 59 68 84 84 73 72 76 78 74 68 60 63 66 78 78 62 52 55 48 50 53
27 24 24 25 30 30 30 30 30 32 33 32 32 32 32 32 33 34 36 37 39 39 39 44 43 42 38 42 46 50 60 70 70 63 64 77 67 57 55 63 65 57 57 58 53 46 46
22 25 26 26 25 24 22 22 25 28 30 31 32 33 38 41 38 38 42 43 43 38 35 39 41 42 41 41 40 40 41 40 45 54 56 56 51 52 54 52 62 60 59 57 54 45 46
37 26 33 25 25 24 24 27 28 29 33 34 35 42 48 41 46 49 41 39 42 44 49 47 42 42 40 40 43 49 52 48 47 47 48 50 51 50 51 50 56 54 62 60 62 51 51
62 74 65 64 43 34 33 26 34 33 31 35 46 38 47 57 47 39 37 37 36 38 49 45 42 41 56 63 68 70 63 57 58 57 62 58 54 50 47 46 46 46 53 60 67 65 52
58 79 88 94 90 58 51 40 51 57 49 52 70 54 59 60 80 62 54 40 42 58 50 45 42 44 60 87 83 82 83 63 63 63 61 60 59 66 65 56 52 57 53 64 65 73 60
88 86 100 100 100 88 68 56 56 72 67 84 74 77 86 80 84 76 92 78 98 82 97 92 86 92 69 63 89 99 98 77 87 100 59 59 66 73 76 64 56 55 53 58 67 68 69
86 97 100 100 100 100 82 89 82 94 88 94 94 80 76 96 92 96 90 93 91 88 100 100 100 88 99 97 92 94 88 72 69 99 100 75 68 70 70 68 64 53 55 58 76 73 80
100 100 100 100 85 86 83 97 97 92 100 100 100 100 93 80 70 63 57 54 49 45 41 38 36 38 36 93 86 72 87 83 72 61 100 100 88 78 71 64 69 68 56 61 68 89 74
97 100 96 79 85 95 96 100 100 100 100 100 100 100 100 90 70 64 58 53 51 40 34 33 32 29 28 32 42 39 32 35 66 52 73 100 92 62 70 65 75 69 67 62 74 80 92
71 91 95 94 69 74 100 100 100 100 100 100 96 90 86 70 52 55 42 38 36 26 26 25 25 24 24 27 29 29 32 46 53 59 63 82 76 66 74 62 66 70 67 60 57 83 97
86 100 98 94 100 100 100 100 100 100 99 92 99 78 55 48 48 39 35 29 24 22 19 21 20 20 24 25 25 29 29 42 55 55 66 60 63 61 55 54 46 56 55 48 52 68 100
100 100 100 100 100 100 100 100 100 95 100 97 74 54 52 46 50 42 30 24 24 17 16 17 17 20 19 20 24 25 29 42 45 60 67 55 49 46 47 45 40 36 41 43 49 68 69
100 100 100 99 100 100 94 91 99 91 92 76 62 53 47 42 37 29 24 25 21 15 16 16 16 17 21 23 23 31 30 37 40 45 50 52 47 38 38 33 36 37 37 40 44 62 72
96 99 100 100 100 94 94 99 88 95 76 68 59 52 48 45 36 29 26 25 16 16 20 22 22 19 22 25 26 27 27 28 30 34 38 36 36 29 34 33 35 39 44 35 42 54 54
100 98 97 100 91 98 96 88 88 82 66 62 60 67 57 42 37 28 28 19 17 20 23 27 27 26 29 28 22 24 25 26 28 34 34 33 31 26 24 28 28 41 38 34 40 51 47
81 100 90 84 100 100 99 91 72 67 67 61 58 60 45 35 27 31 20 20 22 24 24 27 29 26 24 25 23 21 20 21 25 32 40 39 36 28 22 23 32 39 34 37 50 47 42
53 56 92 100 99 83 69 65 62 64 57 54 47 40 30 28 30 20 22 27 24 22 22 22 21 21 22 22 23 20 24 23 24 24 26 29 30 29 25 23 28 33 32 47 72 70 58
100 100 98 87 74 71 63 69 69 64 60 40 36 31 29 24 20 21 23 20 22 21 20 21 20 19 19 19 20 20 22 23 22 26 29 29 30 26 22 19 25 24 36 43 46 63 76
88 93 83 69 56 68 70 75 68 59 57 40 32 28 23 18 22 19 18 19 18 19 20 20 22 20 18 17 17 19 18 19 22 27 31 29 29 34 28 24 21 27 37 34 41 53 66
87 88 69 63 69 72 74 70 62 53 41 32 28 23 18 18 18 18 18 17 20 20 19 18 18 18 18 19 17 16 16 16 19 24 32 35 33 33 33 26 22 19 26 37 49 36 54
Wind_Speed
30 31 30 31 31 31 30 30 30 29 29 28 28 27 28 30 30 31 30 29 30 31 32 34 36 38 40 39 39 43 44 43 43 46 47 47 48 49 49 52 53 52 52 53 55 54 56
33 33 35 36 37 37 36 36 34 34 35 36 35 33 36 35 36 36 35 35 35 34 34 36 36 39 39 39 41 43 46 47 47 48 50 50 54 54 54 55 55 54 54 54 55 55 56
34 36 36 38 40 39 41 39 39 41 41 39 39 41 40 42 42 41 39 36 39 39 39 39 40 45 44 45 46 47 48 48 50 53 54 55 57 58 57 59 59 58 57 55 56 57 57
37 36 36 37 37 38 40 42 44 45 45 44 45 45 45 43 41 41 43 43 42 44 49 51 48 48 46 48 50 52 52 51 52 54 56 58 60 59 58 59 58 56 57 58 58 59 59
39 41 42 40 40 41 43 43 45 48 50 51 50 51 51 49 49 49 48 51 54 53 53 53 53 50 51 52 54 55 53 57 57 58 59 59 59 59 60 60 56 55 57 57 58 60 61
42 45 43 45 46 46 45 47 50 53 53 54 55 55 54 53 55 56 56 53 53 54 54 57 56 59 58 58 59 59 60 60 59 61 60 59 59 58 57 56 56 56 56 59 58 59 61
45 45 47 47 48 50 51 51 53 55 56 57 57 55 53 54 52 53 53 53 55 57 59 61 61 59 59 61 63 63 64 64 64 60 60 60 59 56 54 56 58 59 60 59 60 59 62
40 41 41 42 42 44 46 46 47 50 51 52 54 56 57 57 57 57 58 59 58 58 63 62 62 64 63 63 63 64 64 64 64 64 62 60 58 56 56 58 60 60 60 58 60 56 54
35 34 36 37 38 41 44 47 46 46 46 46 46 48 50 50 49 49 49 52 54 56 58 62 62 62 60 62 63 64 65 64 64 63 62 61 61 60 59 60 59 60 59 58 55 53 48
14 15 18 23 27 30 33 34 36 38 40 42 41 40 43 46 47 47 48 50 51 53 52 55 57 57 56 54 56 59 59 59 60 60 61 59 60 59 57 54 52 53 52 51 50 46 41
19 24 22 21 25 29 30 36 35 36 38 43 39 41 41 46 44 46 46 50 53 53 53 52 51 51 51 51 53 53 55 57 60 59 59 58 56 53 51 48 47 48 47 47 46 40 36
27 30 29 28 33 37 41 41 41 39 41 43 47 44 47 48 47 46 46 48 49 51 52 51 51 50 51 52 52 50 52 56 59 57 56 55 54 54 52 51 50 49 45 47 42 39 35
34 37 39 41 43 46 44 46 46 49 52 51 50 54 51 53 53 54 51 50 52 57 61 57 57 55 55 58 59 61 64 62 62 60 57 55 53 52 52 51 51 51 46 41 41 42 38
38 41 46 46 44 54 51 54 55 54 56 55 59 56 51 53 56 64 66 66 65 64 65 65 66 65 64 65 64 66 68 68 69 64 61 57 55 56 56 55 51 49 47 42 37 38 41
42 44 51 54 53 55 56 60 60 60 63 60 63 59 61 65 63 67 69 71 74 73 75 76 75 76 77 73 71 70 72 72 71 71 66 60 59 56 57 57 55 49 47 44 38 36 35
48 48 52 55 58 59 62 62 66 67 68 67 69 66 65 66 70 72 76 75 81 86 84 85 82 84 84 82 74 78 78 75 73 73 73 69 64 59 59 57 57 52 46 44 42 38 35
52 51 55 57 60 65 67 67 69 71 72 75 71 75 75 78 82 86 90 93 94 90 89 89 90 88 86 88 88 87 86 86 80 75 75 73 73 67 60 59 58 55 51 48 44 42 39
54 56 58 60 64 66 68 69 75 76 80 83 81 78 85 89 96 97 100 98 98 100 101 98 95 93 88 85 88 91 86 87 81 79 77 72 76 69 61 58 57 55 55 52 50 47 45
59 62 65 64 69 69 71 75 80 82 85 88 91 93 93 101 107 106 106 102 100 101 98 93 91 87 84 83 85 85 84 78 80 78 76 77 76 70 67 62 57 57 57 58 55 54 49
63 68 69 72 70 74 78 82 85 87 93 96 96 99 105 112 110 112 106 105 107 96 87 83 84 82 81 81 81 80 79 75 77 78 77 78 75 73 69 67 58 59 60 61 59 56 60
69 67 70 75 79 82 84 87 89 93 96 99 104 109 111 116 113 115 113 112 102 91 84 77 77 77 77 75 78 79 77 78 78 78 80 79 76 77 72 67 66 61 59 60 60 62 60
73 72 77 82 84 86 88 93 95 97 99 106 109 113 113 111 115 116 116 106 96 85 78 73 70 67 69 69 71 75 76 78 77 78 81 81 75 73 69 68 66 61 58 60 63 62 62
77 79 82 84 89 91 95 94 99 101 107 111 114 117 115 118 121 123 115 102 92 80 72 67 65 62 63 62 63 67 70 71 73 75 79 77 76 70 65 70 68 56 62 62 61 62 65
79 85 87 89 93 95 98 100 103 107 112 114 115 115 120 121 122 123 108 97 87 74 67 65 64 60 60 61 59 58 59 62 65 70 74 72 74 71 62 67 61 59 60 62 61 67 66
86 87 92 95 94 95 100 105 111 113 114 114 118 120 122 122 124 116 99 88 80 74 68 67 69 64 60 60 59 58 58 57 57 61 66 68 69 67 61 60 57 58 58 58 63 67 65
92 95 93 91 96 104 110 112 114 115 118 121 123 126 124 121 114 102 91 85 78 76 74 72 68 65 64 64 61 56 58 58 55 56 61 63 64 65 60 60 56 55 55 57 62 66 63
87 88 95 98 106 108 111 109 114 116 120 122 127 126 120 110 101 93 86 82 80 78 75 76 73 72 67 64 64 62 60 60 57 59 61 62 61 58 59 58 53 54 54 59 63 61 63
92 96 102 106 110 108 111 114 119 124 127 129 132 123 112 97 92 89 85 84 82 79 76 75 75 76 73 71 66 65 59 60 59 60 61 61 63 63 59 55 54 52 57 61 61 62 64
102 101 106 108 108 112 116 123 124 127 128 133 125 112 101 94 88 86 87 81 82 82 79 77 76 76 73 74 72 68 61 57 61 61 64 63 66 65 61 56 55 57 54 59 63 62 62
Wind_Direction
256 266 269 271 276 280 279 283 284 283 285 288 285 282 285 281 287 289 288 286 286 286 284 283 284 286 289 290 289 288 289 291 289 297 298 299 299 297 295 297 297 297 298 299 298 297 296
259 265 270 274 278 281 285 284 283 282 283 284 281 282 281 278 282 286 282 283 283 283 281 281 280 284 287 289 291 291 289 287 288 291 294 295 297 297 295 298 298 297 297 298 299 298 298
262 268 273 278 279 282 284 282 282 283 284 282 282 283 284 285 284 282 280 284 283 280 278 282 281 284 284 279 281 284 284 285 288 289 291 292 295 297 296 296 299 300 298 296 298 299 299
266 270 276 279 281 281 283 285 284 283 285 283 283 287 286 285 280 279 278 277 283 281 284 286 286 287 284 282 283 285 282 284 285 288 289 289 291 293 294 296 298 298 298 299 300 300 302
266 266 271 272 275 276 278 280 282 283 283 282 281 283 284 284 282 279 278 280 283 282 281 279 281 285 283 282 282 285 286 284 285 287 288 288 290 292 292 293 294 298 299 299 302 303 304
265 268 272 274 276 275 275 277 279 281 283 285 287 287 283 280 280 281 284 281 281 277 277 281 280 284 282 281 281 282 283 286 287 288 288 288 288 289 292 293 293 296 298 299 298 299 301
274 277 277 277 278 280 280 276 277 277 280 284 286 286 286 285 285 286 284 284 280 280 277 280 282 282 280 280 281 281 281 282 285 284 286 288 287 288 289 292 293 295 295 295 296 296 299
277 278 279 279 281 282 282 282 284 284 285 286 286 286 287 287 287 287 287 283 282 281 281 280 280 280 280 281 281 282 283 284 284 285 285 285 286 287 288 290 292 294 293 292 293 296 301
269 272 279 284 285 286 286 287 292 292 292 295 299 298 294 294 294 293 293 291 290 287 285 286 286 286 286 284 282 283 284 284 284 284 285 286 285 286 288 290 291 293 291 290 291 295 301
311 330 331 320 305 301 301 303 304 299 302 304 310 307 306 304 303 300 295 294 290 289 289 289 288 288 289 288 287 286 285 284 284 285 286 285 286 287 287 290 290 293 294 294 294 296 300
330 333 327 329 334 331 328 329 327 317 319 324 315 324 322 311 309 303 298 298 296 294 296 288 286 288 289 291 292 292 289 286 285 285 285 285 286 287 287 289 290 293 293 299 299 299 301
332 328 327 325 330 328 325 327 327 325 325 326 325 317 317 322 313 308 302 295 294 297 298 291 288 288 291 293 297 300 304 294 288 287 287 286 285 285 286 288 289 292 292 298 299 299 301
315 315 318 315 322 322 323 323 324 322 320 319 321 323 321 316 316 318 306 304 307 300 296 300 295 295 300 300 301 303 305 307 301 289 289 287 287 286 286 287 288 288 290 295 296 298 297
313 310 308 306 310 316 315 320 321 317 313 312 315 315 311 310 304 311 313 315 312 306 304 302 300 301 297 295 297 299 303 303 301 296 290 291 288 288 287 287 286 288 287 287 292 291 299
304 306 303 301 302 307 308 312 314 313 310 308 314 313 310 312 309 309 305 306 303 301 299 299 298 297 298 292 290 293 295 298 295 293 288 287 287 290 290 288 288 284 285 285 283 283 289
302 299 299 300 300 301 304 305 307 308 307 306 307 306 306 303 304 305 304 300 299 297 293 293 291 292 289 287 286 286 288 290 290 286 287 287 287 288 286 287 286 285 281 281 280 277 280
293 297 296 296 298 298 301 301 302 304 301 302 303 302 302 302 305 302 301 300 302 300 297 295 294 291 286 279 281 282 283 283 286 283 281 283 283 283 286 282 283 281 279 278 274 271 271
292 291 291 294 295 295 297 297 299 298 299 300 301 299 302 302 304 303 303 302 301 300 297 293 291 289 285 279 278 280 281 279 278 279 274 277 279 280 281 279 281 278 276 274 270 267 268
288 289 290 294 296 297 295 295 295 295 298 299 298 298 299 302 304 302 303 302 301 300 294 290 287 284 280 278 277 276 275 274 272 271 271 270 274 275 276 276 274 273 270 269 268 263 263
292 289 290 295 296 294 293 294 293 294 296 297 298 300 302 303 303 304 305 306 306 303 296 289 284 281 278 276 274 272 271 271 267 267 268 268 269 271 272 272 266 267 266 267 266 260 256
291 290 290 292 292 292 292 293 293 294 294 296 299 301 302 304 305 305 306 308 307 303 295 289 284 280 277 276 273 271 269 267 266 264 265 267 267 268 271 271 270 264 266 265 262 257 256
287 284 287 289 289 290 291 292 293 292 295 299 301 302 303 305 305 307 309 310 307 302 296 291 284 280 278 276 273 269 268 267 266 265 266 266 268 269 268 269 269 267 267 262 257 252 251
289 285 288 290 292 292 292 291 293 296 298 301 302 303 304 304 306 309 310 308 304 300 296 291 287 284 281 277 273 272 270 270 269 268 268 267 268 268 268 267 265 268 263 259 255 252 252
289 291 290 291 293 291 291 293 296 298 300 300 301 302 303 305 306 309 310 306 303 299 296 292 288 286 282 279 276 273 271 270 270 268 268 268 269 267 264 264 263 260 261 257 253 251 251
290 292 292 292 290 293 294 297 298 299 300 301 302 303 303 306 307 309 307 304 301 298 295 292 290 286 282 277 277 278 275 269 269 267 267 268 268 266 264 261 261 259 256 255 254 253 253
292 291 289 289 289 293 294 296 297 300 302 303 303 304 306 307 308 308 305 301 299 297 295 291 288 283 281 279 278 274 272 272 271 271 269 267 265 265 263 259 257 256 254 250 250 252 252
283 285 286 289 294 296 297 298 299 302 301 303 305 305 306 308 308 305 301 299 297 294 292 290 290 285 281 279 276 273 270 268 268 270 268 268 266 263 260 256 253 252 250 249 247 250 252
284 288 291 293 297 297 299 299 300 301 302 304 305 306 306 307 305 302 300 297 296 294 291 289 286 283 282 279 275 271 268 267 265 263 263 262 264 261 257 257 253 249 250 250 247 245 248
288 292 295 296 299 298 299 299 301 302 303 303 306 307 306 305 303 301 297 296 294 291 289 287 282 280 277 277 276 274 269 264 260 259 259 257 256 258 258 254 251 245 249 250 250 246 242